Погода в Шанлыурфе

Турция     37°09′32″N   38°47′31″E
В апреле 2022 года жителям России запретили посещать сайт meteo.paraplan.net по решению Генеральной прокуратуры. Аудитория сайта уменьшилась в 10 раз. Владельцы сайта не видят смысла в поддержке погодного сервера в таких условиях. Сайт будет закрыт в октябре.
темп.,
°C
ветер,
м/с
пор.,
м/с
влажн.,
%
обл.,
%
осадки,
мм/ч
давл.,
гПа
погр.,
м
25 сентября, вс
вс2500:00+19с36410 0.0 1015139
03:00+17ссз46380 0.0 1015125
06:00+16ссз35380 0.0 101676
09:00+20с56260 0.0 1017465
12:00+24с44110 0.0 10161158
15:00+27ссз3490 0.0 10141525
18:00+25зсз33100 0.0 101438
21:00+22сз22120 0.0 101513
26 сентября, пн
пн2600:00+20сз33150 0.0 101414
03:00+19сз22190 0.0 101412
06:00+17ссз33200 0.0 101413
09:00+23ссз33150 0.0 1015239
12:00+28ссз32100 0.0 1013879
15:00+30зсз3370 0.0 10111401
18:00+27зсз2380 0.0 101112
21:00+24з22100 0.0 101211
27 сентября, вт
вт2700:00+22зсз33160 0.0 101112
03:00+21сз22190 0.0 101011
06:00+19ссз22200 0.0 101011
09:00+25сз11130 0.0 1011184
12:00+30зюз2290 0.0 10101031
15:00+32зюз4480 0.0 10081916
18:00+28юз34130 0.0 100834
21:00+23зюз611253 0.0 1009211
28 сентября, ср
ср2800:00+21з22361 0.0 100920
03:00+19з22488 0.0 100913
06:00+17зюз22555 0.0 101011
09:00+21зюз34375 0.0 1010451
12:00+26юз44247 0.0 10091176
15:00+28зюз55173 0.0 10071706
18:00+26зюз33200 0.0 100840
21:00+22юз510460 0.0 1009248
29 сентября, чт
чт2900:00+21з34460 0.0 100968
03:00+19зюз11570 0.0 100911
06:00+18сз11610 0.0 101011
09:00+23ссз11430 0.0 1010271
12:00+28зюз11250 0.0 10091092
15:00+31зюз32180 0.0 10071822
18:00+28зюз45210 0.0 100860
21:00+25юз46370 0.0 1009112